[[{"header":{"parameterUnit":"m.s-1","parameterCategory":1,"la1":30.2991,"la2":30.254,"lo1":-89.0895,"lo2":-89.0444,"dy":0.0017,"dx":0.0017,"nx":28,"ny":28,"refTime":"2023-09-24T03:00:00:Z","depth":0,"parameterNumber":2,"parameterNumberName":"U-component_of_WINDS"},"data":[0,0,0,0,0,0,0,0,0,0,0,0,0,0,0,0,0,0,0,0,0,0,0,0,0,0,0,0,0,0,0,0,0,0,0,0,0,0,0,0,0,0,0,0,0,0,0,0,0,0,0,0,0,0,0,0,0,0,1.1981,1.1983,0,1.2095,1.2096,1.2097,1.2148,1.2148,1.2148,1.2148,1.2267,1.227,1.2273,0,0,0,0,0,0,0,0,0,0,0,0,0,1.1811,1.1813,1.1981,1.1983,1.1984,1.2094,1.2096,1.2098,1.2148,1.2148,1.2148,1.2148,1.2266,1.227,1.2274,0,0,0,0,0,0,0,0,0,0,0,0,0,1.19,1.1814,1.1981,1.2023,1.2027,1.2094,1.2096,1.2098,1.2148,1.2148,1.2148,1.2147,1.2265,1.2269,1.2274,1.2309,0,0,1.2289,1.2292,0,0,0,0,0,0,0,0,1.1895,1.1907,1.2015,1.202,1.2025,1.2107,1.208,1.2169,1.2148,1.2102,1.2148,1.2147,1.2214,1.2223,1.2245,1.2315,1.232,1.229,1.2293,1.2295,1.2296,0,0,0,0,0,0,0,1.1889,1.1902,1.2026,1.2017,1.2023,1.2036,1.2049,1.2097,1.2158,1.2106,1.211,1.2123,1.2217,1.224,1.2248,1.2322,1.229,1.2294,1.2297,1.2299,1.2425,1.2426,0,0,0,0,0,0,1.1876,1.1896,1.2023,1.203,1.1958,1.2039,1.2053,1.2081,1.2158,1.2169,1.2123,1.2125,1.2232,1.2242,1.2253,1.2298,1.2295,1.23,1.2303,1.2425,1.2426,1.2426,0,0,0,0,0,0,1.1872,1.1886,1.2018,1.1964,1.1982,1.2042,1.2073,1.2083,1.2107,1.217,1.2182,1.2135,1.2232,1.2246,1.2294,1.2303,1.2302,1.2306,1.2425,1.2425,1.2426,1.239,0,0,0,0,0,0,1.1867,1.1885,1.1898,1.1964,1.1985,1.2057,1.2074,1.2086,1.2115,1.2118,1.2185,1.2196,1.2233,1.2287,1.2299,1.231,1.231,1.2424,1.2425,1.2426,1.2391,1.2389,1.2388,0,0,0,0,0,1.186,1.1885,1.1899,1.1914,1.2003,1.2058,1.207,1.2111,1.2115,1.213,1.217,1.2194,1.23,1.2291,1.2306,1.2318,1.2424,1.2425,1.2425,1.2391,1.239,1.2388,0,0,0,0,0,0,1.182,1.1894,1.191,1.1957,1.2,1.2066,1.2086,1.2108,1.2152,1.2154,1.2204,1.2219,1.2263,1.2296,1.2285,1.2356,1.2364,1.2368,1.2333,1.2332,1.233,1.2322,1.2314,0,0,0,0,0,1.1815,1.1853,1.1917,1.1951,1.1972,1.2025,1.205,1.2078,1.2126,1.2145,1.2189,1.2236,1.2279,1.2307,1.2351,1.2395,1.2411,1.2411,1.241,1.2408,1.2411,1.2436,1.2437,1.2429,1.2429,1.2429,0,0,1.1808,1.1854,1.1875,1.1944,1.1981,1.202,1.204,1.208,1.2109,1.2152,1.22,1.2234,1.2289,1.2335,1.2358,1.2364,1.2417,1.2409,1.2408,1.2412,1.2437,1.2438,1.2439,1.2429,1.2429,1.2429,0,0,1.1815,1.1853,1.1886,1.1922,1.1977,1.2012,1.202,1.2082,1.2106,1.2155,1.2187,1.2223,1.2297,1.2335,1.2363,1.2382,1.2406,1.2395,1.2389,1.2413,1.2413,1.2414,1.2421,1.2423,1.2398,1.2398,1.2398,0,1.18,1.1858,1.19,1.1938,1.1967,1.2005,1.2039,1.2073,1.214,1.216,1.2165,1.2258,1.2298,1.2353,1.2357,1.238,1.239,1.2388,1.241,1.2411,1.2412,1.2419,1.2422,1.2396,1.2396,1.2397,1.2397,0,1.1836,1.1876,1.1896,1.1958,1.199,1.2025,1.2073,1.21,1.2125,1.2159,1.2208,1.2257,1.2311,1.2326,1.2351,1.2384,1.2386,1.24,1.2409,1.2411,1.2418,1.2421,1.2394,1.2394,1.2395,1.2395,0,0,1.1821,1.1905,1.1912,1.194,1.2003,1.2035,1.2072,1.2124,1.2146,1.2191,1.2223,1.2285,1.2297,1.233,1.2359,1.238,1.2392,1.2392,1.2394,1.239,1.2431,1.2421,1.2423,1.2407,1.2408,1.2408,1.2427,0,1.1836,1.1904,1.1942,1.1994,1.2031,1.2067,1.2099,1.2142,1.2174,1.2211,1.2248,1.229,1.2304,1.2323,1.2346,1.2385,1.2401,1.2385,1.2438,1.244,1.2424,1.2427,1.2417,1.2432,1.243,1.2431,1.2431,0,1.1864,1.1906,1.1961,1.2019,1.2036,1.2064,1.2114,1.2149,1.2198,1.222,1.2255,1.2284,1.2325,1.233,1.2387,1.2375,1.2399,1.2422,1.2424,1.2431,1.2436,1.2435,1.2438,1.244,1.2436,1.2435,1.2435,0,1.1847,1.1918,1.196,1.1983,1.2052,1.2071,1.2101,1.2149,1.2177,1.2221,1.224,1.2288,1.2315,1.2351,1.2393,1.2393,1.2446,1.2454,1.2466,1.2465,1.2476,1.2475,1.2483,1.2491,1.2491,1.2491,1.249,0,1.186,1.1893,1.1953,1.1979,1.2016,1.206,1.2096,1.2128,1.2171,1.2204,1.2238,1.2269,1.2321,1.2358,1.2391,1.2433,1.2445,1.2465,1.2473,1.2462,1.2459,1.2479,1.2479,1.2491,1.2491,1.2491,1.2491,0,1.1849,1.1891,1.1939,1.1999,1.2015,1.204,1.2092,1.2119,1.2152,1.2194,1.2206,1.2259,1.2304,1.2349,1.241,1.2432,1.2474,1.2485,1.2457,1.2462,1.247,1.2469,1.2492,1.2498,1.25,1.25,1.25,0,1.1854,1.188,1.1943,1.1967,1.1995,1.2034,1.2062,1.2106,1.2134,1.2191,1.2211,1.2258,1.2299,1.2369,1.2414,1.2461,1.2473,1.2478,1.2481,1.2468,1.2474,1.2472,1.2475,1.2477,1.2477,1.2477,1.2476,0,1.186,1.1879,1.1919,1.1965,1.1998,1.2037,1.2077,1.2095,1.2146,1.2176,1.2222,1.2253,1.2315,1.2362,1.2413,1.2445,1.2469,1.2475,1.248,1.2469,1.2452,1.2461,1.2454,1.2475,1.2475,1.2475,1.2475,1.2475,1.1858,1.1882,1.1929,1.1972,1.2006,1.2043,1.207,1.2107,1.2145,1.2198,1.2222,1.2268,1.2316,1.2387,1.2418,1.2455,1.2462,1.2469,1.2471,1.2472,1.247,1.2445,1.2465,1.2465,1.2465,1.2465,1.2465,0,1.1866,1.1898,1.1936,1.199,1.2024,1.2042,1.2087,1.2114,1.2154,1.2196,1.2234,1.2287,1.2332,1.2379,1.2427,1.2448,1.246,1.2459,1.2459,1.2465,1.2461,1.2452,1.2448,1.2448,1.2448,1.2448,1.2448,1.2448,1.1873,1.1915,1.1939,1.1998,1.203,1.2075,1.2099,1.2133,1.2166,1.2223,1.226,1.229,1.2335,1.2386,1.2428,1.2441,1.2457,1.2453,1.2469,1.2465,1.2466,1.2467,1.2458,1.2456,1.2456,1.247,1.247,1.247]},{"header":{"parameterUnit":"m.s-1","parameterCategory":1,"la1":30.2991,"la2":30.254,"lo1":-89.0895,"lo2":-89.0444,"dy":0.0017,"dx":0.0017,"nx":28,"ny":28,"refTime":"2023-09-24T03:00:00:Z","depth":0,"parameterNumber":3,"parameterNumberName":"V-component_of_WINDS"},"data":[0,0,0,0,0,0,0,0,0,0,0,0,0,0,0,0,0,0,0,0,0,0,0,0,0,0,0,0,0,0,0,0,0,0,0,0,0,0,0,0,0,0,0,0,0,0,0,0,0,0,0,0,0,0,0,0,0,0,2.8884,2.8883,0,2.8835,2.8834,2.8834,2.8811,2.8811,2.8811,2.8811,2.8756,2.8755,2.8753,0,0,0,0,0,0,0,0,0,0,0,0,0,2.8953,2.8951,2.8884,2.8883,2.8883,2.8835,2.8834,2.8834,2.8811,2.8811,2.8811,2.8811,2.8757,2.8755,2.8753,0,0,0,0,0,0,0,0,0,0,0,0,0,2.8915,2.8951,2.8884,2.8866,2.8864,2.8835,2.8834,2.8834,2.8811,2.8811,2.8811,2.8811,2.8757,2.8755,2.8753,2.8737,0,0,2.8746,2.8745,0,0,0,0,0,0,0,0,2.8917,2.8913,2.8869,2.8867,2.8865,2.8829,2.8838,2.8801,2.8811,2.8831,2.8811,2.8812,2.878,2.8776,2.8766,2.8735,2.8732,2.8746,2.8744,2.8743,2.8743,0,0,0,0,0,0,0,2.892,2.8914,2.8864,2.8868,2.8866,2.8859,2.8853,2.8831,2.8805,2.8829,2.8828,2.8822,2.8779,2.8769,2.8765,2.8731,2.8746,2.8744,2.8742,2.8741,2.8684,2.8684,0,0,0,0,0,0,2.8926,2.8917,2.8866,2.8863,2.8892,2.8857,2.8851,2.884,2.8806,2.8801,2.8822,2.8821,2.8773,2.8768,2.8763,2.8743,2.8743,2.8741,2.874,2.8685,2.8684,2.8684,0,0,0,0,0,0,2.8928,2.8922,2.8868,2.8889,2.8882,2.8856,2.8844,2.884,2.8829,2.8801,2.8795,2.8817,2.8772,2.8766,2.8744,2.874,2.874,2.8738,2.8685,2.8685,2.8684,2.8702,0,0,0,0,0,0,2.893,2.8923,2.8917,2.889,2.8881,2.8851,2.8844,2.8839,2.8826,2.8825,2.8794,2.8789,2.8772,2.8748,2.8742,2.8737,2.8736,2.8685,2.8685,2.8684,2.8701,2.8702,2.8703,0,0,0,0,0,2.8932,2.8923,2.8917,2.8911,2.8874,2.8851,2.8846,2.8828,2.8826,2.882,2.8802,2.879,2.8742,2.8746,2.8739,2.8734,2.8685,2.8685,2.8684,2.8701,2.8702,2.8703,0,0,0,0,0,0,2.8948,2.8919,2.8912,2.8894,2.8875,2.8847,2.8839,2.883,2.881,2.8809,2.8786,2.8779,2.8759,2.8744,2.8749,2.8717,2.8712,2.8711,2.8727,2.8728,2.8729,2.8733,2.8734,0,0,0,0,0,2.895,2.8936,2.891,2.8896,2.8887,2.8865,2.8854,2.8842,2.8822,2.8813,2.8793,2.8772,2.8752,2.8739,2.8719,2.8699,2.8692,2.8692,2.8693,2.8694,2.8692,2.8681,2.8681,2.8683,2.8683,2.8683,0,0,2.8953,2.8935,2.8927,2.8899,2.8883,2.8867,2.8858,2.8842,2.8829,2.881,2.8789,2.8773,2.8748,2.8727,2.8717,2.8714,2.869,2.8693,2.8694,2.8692,2.8681,2.868,2.868,2.8683,2.8683,2.8683,0,0,2.895,2.8935,2.8923,2.8908,2.8885,2.887,2.8868,2.8841,2.8831,2.881,2.8795,2.8779,2.8745,2.8728,2.8715,2.8708,2.8696,2.8701,2.8705,2.8694,2.8694,2.8693,2.8691,2.869,2.87,2.87,2.87,0,2.8956,2.8933,2.8917,2.8901,2.8889,2.8873,2.886,2.8845,2.8816,2.8808,2.8805,2.8764,2.8745,2.8721,2.8719,2.8709,2.8704,2.8704,2.8696,2.8695,2.8694,2.8691,2.869,2.8701,2.8701,2.8701,2.8701,0,2.8941,2.8926,2.8918,2.8893,2.888,2.8865,2.8845,2.8834,2.8824,2.8809,2.8787,2.8765,2.8741,2.8734,2.8723,2.8708,2.8707,2.87,2.8695,2.8695,2.8692,2.8691,2.8702,2.8702,2.8702,2.8702,0,0,2.8946,2.8914,2.8911,2.89,2.8874,2.8861,2.8846,2.8824,2.8814,2.8795,2.8781,2.8754,2.8748,2.8733,2.872,2.871,2.8706,2.8705,2.8704,2.8706,2.8688,2.8693,2.8692,2.8699,2.8698,2.8698,2.869,0,2.8939,2.8913,2.8898,2.8877,2.8862,2.8848,2.8834,2.8816,2.8803,2.8787,2.877,2.8752,2.8746,2.8737,2.8727,2.8709,2.8702,2.8709,2.8684,2.8683,2.869,2.869,2.8695,2.8688,2.8688,2.8688,2.8688,0,2.8928,2.8911,2.889,2.8867,2.886,2.8848,2.8828,2.8813,2.8793,2.8783,2.8768,2.8755,2.8737,2.8734,2.8708,2.8714,2.8703,2.8692,2.8691,2.8688,2.8685,2.8686,2.8685,2.8684,2.8686,2.8686,2.8686,0,2.8933,2.8905,2.8889,2.888,2.8853,2.8845,2.8833,2.8813,2.8801,2.8782,2.8774,2.8753,2.8741,2.8725,2.8706,2.8706,2.8682,2.8678,2.8673,2.8673,2.8668,2.8668,2.8665,2.8661,2.8661,2.8661,2.8661,0,2.8927,2.8914,2.8892,2.8881,2.8867,2.885,2.8835,2.8821,2.8804,2.879,2.8775,2.8762,2.8738,2.8722,2.8707,2.8688,2.8683,2.8673,2.867,2.8675,2.8676,2.8666,2.8666,2.8661,2.8661,2.8661,2.8661,0,2.893,2.8915,2.8896,2.8873,2.8867,2.8857,2.8836,2.8825,2.8811,2.8794,2.8789,2.8766,2.8746,2.8726,2.8699,2.8689,2.867,2.8665,2.8677,2.8675,2.8671,2.8672,2.8661,2.8659,2.8658,2.8658,2.8658,0,2.8927,2.8917,2.8894,2.8885,2.8874,2.8859,2.8847,2.883,2.8818,2.8795,2.8786,2.8766,2.8749,2.8717,2.8697,2.8676,2.867,2.8668,2.8667,2.8672,2.867,2.8671,2.8669,2.8668,2.8669,2.8669,2.8669,0,2.8923,2.8917,2.8902,2.8884,2.8872,2.8857,2.8841,2.8834,2.8813,2.88,2.8781,2.8768,2.8741,2.8721,2.8698,2.8683,2.8672,2.867,2.8667,2.8672,2.868,2.8675,2.8679,2.867,2.867,2.867,2.8669,2.8669,2.8923,2.8914,2.8897,2.888,2.8867,2.8853,2.8842,2.8828,2.8812,2.8791,2.8781,2.8761,2.8741,2.8709,2.8696,2.8679,2.8676,2.8673,2.8672,2.8671,2.8672,2.8683,2.8675,2.8675,2.8675,2.8674,2.8674,0,2.8918,2.8907,2.8893,2.8872,2.8859,2.8853,2.8835,2.8824,2.8808,2.8791,2.8775,2.8753,2.8733,2.8713,2.8692,2.8682,2.8677,2.8677,2.8677,2.8674,2.8676,2.868,2.8682,2.8682,2.8682,2.8682,2.8682,2.8682,2.8914,2.8899,2.889,2.8868,2.8856,2.8838,2.8829,2.8816,2.8802,2.8779,2.8763,2.8751,2.8732,2.871,2.8691,2.8685,2.8678,2.868,2.8673,2.8675,2.8674,2.8674,2.8677,2.8679,2.8679,2.8672,2.8672,2.8672]}]]